Weather History for Falls City, NE

Change the Weather History Date:

Sunday, May 6, 2012

  Actual Average Record
Temperature  
Mean Temperature 70 °F -  
Max Temperature 82 °F 73 °F 93 °F (2004)
Min Temperature 60 °F 50 °F 32 °F (1989)
Cooling Degree Days 6    
Growing Degree Days 20 (Base 50)    
Moisture  
Dew Point 61 °F    
Average Humidity 79    
Maximum Humidity 100    
Minimum Humidity 50    
Precipitation  
Precipitation 0.02 in - - ()
Sea Level Pressure  
Sea Level Pressure 29.87 in    
Wind  
Wind Speed 10 mph (North)    
Max Wind Speed 20 mph    
Max Gust Speed 34 mph    
Visibility 9 miles    
Events Rain , Thunderstorm    
Averages and records for this station are not official NWS values.
T = Trace of Precipitation, MM = Missing Value Source: NWS Daily Summary

Daily Weather History Graph

Daily Weather History Graph

Search for Another Location

Airport:

Trip Planner

Search our weather history database for the weather conditions in past years. The results will help you decide how hot, cold, wet, or windy it might be!

Date:

Astronomy

May. 06, 2012 Rise Set
Actual Time 6:15 AM CDT 8:22 PM CDT
Civil Twilight 5:45 AM CDT 8:52 PM CDT
Nautical Twilight 5:09 AM CDT 9:29 PM CDT
Astronomical Twilight 4:29 AM CDT 10:09 PM CDT
Moon 9:29 PM CDT (5/6) 6:26 AM CDT (5/6)
Length of Visible Light 15h 06m
Length of Day
14h 07m
Full, 100% of the Moon is Illuminated
May 6
Full
May 12
Last Quarter
May 20
New
May 28
First Quarter
Jun 4
Full

Hourly Weather History & Observations

Time (CDT) Temp. Heat Index Dew Point Humidity Pressure Visibility Wind Dir Wind Speed Gust Speed Precip Events Conditions
12:53 AM 70.0 °F - 64.0 °F 81% 29.74 in 10.0 mi SE 6.9 mph - N/A   Clear
1:53 AM 72.0 °F - 64.9 °F 78% 29.74 in 10.0 mi SSE 10.4 mph - N/A   Clear
2:53 AM 69.8 °F - 64.4 °F 83% 29.78 in 10.0 mi SSE 6.9 mph - N/A   Scattered Clouds
3:53 AM 71.1 °F - 64.9 °F 81% 29.75 in 10.0 mi SE 5.8 mph - N/A   Partly Cloudy
4:53 AM 70.0 °F - 64.0 °F 81% 29.73 in 10.0 mi SE 5.8 mph - N/A   Clear
5:53 AM 69.1 °F - 63.0 °F 81% 29.75 in 10.0 mi Calm Calm - N/A   Clear
6:53 AM 70.0 °F - 64.0 °F 81% 29.81 in 10.0 mi NW 9.2 mph 21.9 mph N/A   Overcast
7:04 AM 71.6 °F - 64.4 °F 78% 29.84 in 10.0 mi NW 8.1 mph 34.5 mph 0.00 in Rain Light Rain
7:44 AM 68.0 °F - 62.6 °F 83% 29.84 in 10.0 mi NNE 9.2 mph - 0.00 in   Mostly Cloudy
7:53 AM 69.1 °F - 62.1 °F 78% 29.82 in 10.0 mi North 9.2 mph - 0.00 in   Scattered Clouds
8:53 AM 70.0 °F - 62.1 °F 76% 29.84 in 10.0 mi NNE 15.0 mph 23.0 mph N/A   Clear
9:53 AM 73.0 °F - 61.0 °F 66% 29.81 in 10.0 mi ENE 15.0 mph 26.5 mph N/A   Clear
10:53 AM 77.0 °F - 60.1 °F 56% 29.81 in 10.0 mi ENE 16.1 mph 24.2 mph N/A   Clear
11:53 AM 80.1 °F 81.1 °F 61.0 °F 52% 29.83 in 10.0 mi ENE 17.3 mph 25.3 mph N/A   Clear
12:53 PM 81.0 °F 81.7 °F 61.0 °F 50% 29.83 in 10.0 mi East 11.5 mph 18.4 mph N/A   Clear
1:53 PM 80.1 °F 81.9 °F 64.9 °F 60% 29.83 in 10.0 mi Variable 3.5 mph - N/A   Overcast
2:53 PM 80.1 °F 81.5 °F 63.0 °F 56% 29.82 in 10.0 mi NNW 4.6 mph - N/A   Overcast
3:53 PM 77.0 °F - 62.1 °F 60% 29.83 in 10.0 mi North 11.5 mph 20.7 mph N/A   Overcast
4:46 PM 75.2 °F - 60.8 °F 61% 29.84 in 10.0 mi North 19.6 mph 28.8 mph N/A Thunderstorm Overcast
4:53 PM 75.0 °F - 61.0 °F 62% 29.82 in 10.0 mi North 19.6 mph 27.6 mph N/A Thunderstorm Overcast
5:01 PM 75.2 °F - 60.8 °F 61% 29.85 in 10.0 mi North 17.3 mph 26.5 mph N/A   Overcast
5:53 PM 71.1 °F - 60.1 °F 68% 29.86 in 10.0 mi NNW 19.6 mph 28.8 mph N/A   Overcast
6:53 PM 68.0 °F - 61.0 °F 78% 29.86 in 10.0 mi North 10.4 mph 20.7 mph 0.00 in   Overcast
7:53 PM 66.0 °F - 60.1 °F 81% 29.89 in 10.0 mi NNW 13.8 mph 23.0 mph N/A   Overcast
8:53 PM 64.0 °F - 60.1 °F 87% 29.91 in 8.0 mi NNW 13.8 mph 21.9 mph 0.00 in Rain Light Rain
9:22 PM 62.6 °F - 59.0 °F 88% 29.94 in 8.0 mi NNW 11.5 mph 20.7 mph 0.01 in Rain Light Rain
9:53 PM 63.0 °F - 59.0 °F 87% 29.94 in 9.0 mi NNW 12.7 mph 20.7 mph 0.01 in Thunderstorm Overcast
10:06 PM 62.6 °F - 59.0 °F 88% 29.98 in 10.0 mi NW 18.4 mph 28.8 mph 0.00 in Rain , Thunderstorm Light Thunderstorms and Rain
10:15 PM 62.6 °F - 60.8 °F 94% 29.99 in 5.0 mi WNW 19.6 mph 27.6 mph 0.04 in Rain , Thunderstorm Light Thunderstorms and Rain
10:22 PM 60.8 °F - 60.8 °F 100% 29.99 in 1.8 mi NNW 11.5 mph 27.6 mph 0.16 in Rain , Thunderstorm Heavy Thunderstorms and Rain
10:29 PM 60.8 °F - 60.8 °F 100% 29.97 in 1.2 mi North 15.0 mph 21.9 mph 0.47 in Rain Heavy Rain
10:33 PM 60.8 °F - 60.8 °F 100% 29.97 in 1.2 mi North 15.0 mph 24.2 mph 0.56 in Rain , Thunderstorm Heavy Rain
10:40 PM 60.8 °F - 60.8 °F 100% 29.96 in 2.0 mi North 16.1 mph 24.2 mph 0.64 in Rain , Thunderstorm Heavy Rain
10:50 PM 60.8 °F - 59.0 °F 94% 29.95 in 5.0 mi NNE 15.0 mph 20.7 mph 0.64 in Rain , Thunderstorm Light Rain
11:03 PM 62.6 °F - 59.0 °F 88% 29.94 in 8.0 mi NNE 12.7 mph 23.0 mph 0.01 in   Overcast
11:34 PM 62.6 °F - 59.0 °F 88% 29.95 in 9.0 mi North 10.4 mph - 0.01 in Thunderstorm Overcast
11:49 PM 62.6 °F - 60.8 °F 94% 29.96 in 9.0 mi NNW 9.2 mph - 0.01 in Rain Light Rain
11:53 PM 62.1 °F - 60.1 °F 93% 29.94 in 8.0 mi NNW 9.2 mph - 0.01 in Rain Light Rain